| time (UTC) | temp F | wind direction | speed knots | gust knots | rain 1hr in | rain 24hr in | rain mn in | humidity % | barometer mb |
| 20260506232611 | 62 | 0 | 3.5 | 6.1 | 0.00 | 0.00 | 0.00 | 71 | 1016.0 |
| 20260506231108 | 61 | 45 | 3.5 | 7.0 | 0.00 | 0.00 | 0.00 | 74 | 1015.8 |
| 20260506225607 | 61 | 45 | 2.6 | 4.3 | 0.00 | 0.00 | 0.00 | 76 | 1015.8 |
| 20260506224104 | 61 | 45 | 2.6 | 5.2 | 0.00 | 0.00 | 0.00 | 77 | 1015.8 |
| 20260506222603 | 61 | 0 | 2.6 | 3.5 | 0.00 | 0.00 | 0.00 | 77 | 1016.1 |
| 20260506221100 | 62 | 0 | 0.0 | 1.7 | 0.00 | 0.00 | 0.00 | 77 | 1016.1 |
| 20260506215557 | 62 | 270 | 0.0 | 1.7 | 0.00 | 0.00 | 0.00 | 78 | 1016.2 |
| 20260506214056 | 62 | 315 | 0.0 | 1.7 | 0.00 | 0.00 | 0.00 | 78 | 1016.3 |
| 20260506212554 | 62 | 315 | 1.7 | 2.6 | 0.00 | 0.00 | 0.00 | 77 | 1016.4 |
| 20260506211051 | 63 | 225 | 0.0 | 0.0 | 0.00 | 0.00 | 0.00 | 77 | 1016.5 |
| 20260506205549 | 63 | 225 | 0.0 | 0.0 | 0.00 | 0.00 | 0.00 | 78 | 1016.5 |
| 20260506204046 | 63 | 225 | 0.0 | 0.0 | 0.00 | 0.00 | 0.00 | 78 | 1016.7 |
| 20260506202544 | 63 | 225 | 0.0 | 0.0 | 0.00 | 0.00 | 0.00 | 78 | 1016.8 |
| 20260506201043 | 64 | 225 | 0.0 | 0.0 | 0.00 | 0.00 | 0.00 | 74 | 1016.6 |
| 20260506195540 | 64 | 225 | 0.0 | 0.9 | 0.00 | 0.00 | 0.00 | 73 | 1016.6 |
| 20260506194039 | 64 | 315 | 0.0 | 2.6 | 0.00 | 0.00 | 0.00 | 73 | 1016.6 |
| 20260506192536 | 65 | 0 | 0.9 | 1.7 | 0.00 | 0.00 | 0.00 | 73 | 1016.5 |
| 20260506191034 | 65 | 45 | 1.7 | 1.7 | 0.00 | 0.00 | 0.00 | 73 | 1016.3 |
| 20260506185533 | 66 | 135 | 0.0 | 0.0 | 0.00 | 0.00 | 0.00 | 73 | 1016.2 |
| 20260506184030 | 66 | 270 | 0.0 | 1.7 | 0.00 | 0.00 | 0.00 | 72 | 1016.0 |
| 20260506182528 | 66 | 270 | 0.0 | 1.7 | 0.00 | 0.00 | 0.00 | 72 | 1015.9 |
| 20260506181026 | 67 | 225 | 0.0 | 0.9 | 0.00 | 0.00 | 0.00 | 72 | 1015.8 |
| 20260506175524 | 67 | 225 | 0.0 | 1.7 | 0.00 | 0.00 | 0.00 | 72 | 1015.6 |
| 20260506174030 | 67 | 270 | 0.0 | 1.7 | 0.00 | 0.00 | 0.00 | 71 | 1015.5 |
| 20260506172520 | 67 | 225 | 0.0 | 1.7 | 0.00 | 0.00 | 0.00 | 71 | 1015.6 |
| 20260506171017 | 67 | 180 | 0.0 | 1.7 | 0.00 | 0.00 | 0.00 | 71 | 1015.5 |
| 20260506165515 | 68 | 270 | 0.9 | 1.7 | 0.00 | 0.00 | 0.00 | 70 | 1015.6 |
| 20260506164012 | 68 | 180 | 1.7 | 2.6 | 0.00 | 0.00 | 0.00 | 68 | 1015.5 |
| 20260506162510 | 69 | 135 | 0.9 | 2.6 | 0.00 | 0.00 | 0.00 | 67 | 1015.4 |
| 20260506161008 | 69 | 225 | 1.7 | 3.5 | 0.00 | 0.00 | 0.00 | 66 | 1015.4 |
| 20260506155505 | 70 | 45 | 0.9 | 4.3 | 0.00 | 0.00 | 0.00 | 65 | 1015.3 |
| 20260506154004 | 70 | 315 | 3.5 | 4.3 | 0.00 | 0.00 | 0.00 | 62 | 1015.4 |
| 20260506152502 | 71 | 135 | 3.5 | 6.1 | 0.00 | 0.00 | 0.00 | 61 | 1015.3 |
| 20260506150959 | 71 | 180 | 3.5 | 5.2 | 0.00 | 0.00 | 0.00 | 61 | 1015.2 |
| 20260506145457 | 72 | 0 | 1.7 | 6.1 | 0.00 | 0.00 | 0.00 | 61 | 1015.3 |
| 20260506143956 | 72 | 180 | 3.5 | 6.1 | 0.00 | 0.00 | 0.00 | 62 | 1015.5 |
| 20260506142454 | 73 | 180 | 3.5 | 7.0 | 0.00 | 0.00 | 0.00 | 60 | 1015.7 |
| 20260506140951 | 73 | 135 | 5.2 | 7.8 | 0.00 | 0.00 | 0.00 | 58 | 1015.7 |
| 20260506135449 | 74 | 180 | 3.5 | 7.0 | 0.00 | 0.00 | 0.00 | 60 | 1015.7 |
| 20260506133947 | 74 | 135 | 4.3 | 8.7 | 0.00 | 0.00 | 0.00 | 59 | 1015.8 |
| 20260506132444 | 75 | 180 | 5.2 | 9.6 | 0.00 | 0.00 | 0.00 | 58 | 1015.9 |
| 20260506130943 | 76 | 135 | 7.0 | 7.8 | 0.00 | 0.00 | 0.00 | 56 | 1015.9 |
| 20260506125440 | 77 | 180 | 5.2 | 8.7 | 0.00 | 0.00 | 0.00 | 57 | 1015.8 |
| 20260506123938 | 77 | 180 | 4.3 | 7.8 | 0.00 | 0.00 | 0.00 | 58 | 1015.9 |
| 20260506122436 | 77 | 180 | 5.2 | 9.6 | 0.00 | 0.00 | 0.00 | 59 | 1016.1 |
| 20260506120933 | 77 | 135 | 7.0 | 8.7 | 0.00 | 0.00 | 0.00 | 61 | 1016.2 |
| 20260506115431 | 77 | 135 | 7.0 | 9.6 | 0.00 | 0.00 | 0.00 | 60 | 1016.6 |
| 20260506113934 | 77 | 180 | 5.2 | 9.6 | 0.00 | 0.00 | 0.00 | 60 | 1016.5 |
| 20260506112427 | 77 | 135 | 4.3 | 9.6 | 0.00 | 0.00 | 0.00 | 60 | 1016.6 |
| 20260506110925 | 76 | 180 | 7.0 | 9.6 | 0.00 | 0.00 | 0.00 | 59 | 1016.5 |
| 20260506105423 | 76 | 135 | 6.1 | 9.6 | 0.00 | 0.00 | 0.00 | 59 | 1016.4 |
| 20260506103921 | 76 | 158 | 4.3 | 9.6 | 0.00 | 0.00 | 0.00 | 59 | 1016.4 |
| 20260506102419 | 74 | 90 | 3.5 | 9.6 | 0.00 | 0.00 | 0.00 | 59 | 1016.4 |
| 20260506100917 | 72 | 135 | 5.2 | 10.4 | 0.00 | 0.00 | 0.00 | 63 | 1016.3 |
| 20260506095415 | 71 | 113 | 9.6 | 12.2 | 0.00 | 0.00 | 0.00 | 64 | 1016.2 |
| 20260506093913 | 71 | 180 | 9.6 | 12.2 | 0.00 | 0.00 | 0.00 | 64 | 1016.2 |
| 20260506092410 | 70 | 135 | 7.8 | 10.4 | 0.00 | 0.00 | 0.00 | 63 | 1016.4 |
| 20260506090908 | 70 | 225 | 7.0 | 11.3 | 0.00 | 0.00 | 0.00 | 62 | 1016.1 |
| 20260506085406 | 69 | 135 | 7.8 | 11.3 | 0.00 | 0.00 | 0.00 | 61 | 1016.1 |
| 20260506083904 | 69 | 135 | 7.0 | 9.6 | 0.00 | 0.00 | 0.00 | 61 | 1016.0 |
| 20260506082401 | 68 | 180 | 7.0 | 12.2 | 0.00 | 0.00 | 0.00 | 61 | 1015.9 |
| 20260506080859 | 68 | 180 | 7.0 | 12.2 | 0.00 | 0.00 | 0.00 | 55 | 1015.8 |
| 20260506072352 | 67 | 135 | 7.0 | 10.4 | 0.00 | 0.00 | 0.00 | 56 | 1015.5 |
| 20260506070850 | 66 | 135 | 5.2 | 7.0 | 0.00 | 0.00 | 0.00 | 58 | 1015.2 |
| 20260506062345 | 64 | 315 | 2.6 | 4.3 | 0.00 | 0.00 | 0.00 | 46 | 1015.2 |
| 20260506060842 | 63 | 90 | 1.7 | 4.3 | 0.00 | 0.00 | 0.00 | 52 | 1015.2 |
| 20260506050834 | 59 | 225 | 0.0 | 1.7 | 0.00 | 0.00 | 0.00 | 61 | 1014.8 |
| 20260506043829 | 57 | 135 | 0.9 | 2.6 | 0.00 | 0.00 | 0.00 | 60 | 1014.6 |
| 20260506042327 | 57 | 315 | 1.7 | 3.5 | 0.00 | 0.00 | 0.00 | 58 | 1014.6 |
| 20260506040824 | 56 | 225 | 0.0 | 2.6 | 0.00 | 0.00 | 0.00 | 59 | 1014.6 |
| 20260506035323 | 56 | 0 | 0.9 | 5.2 | 0.00 | 0.00 | 0.00 | 58 | 1014.5 |
| 20260506033822 | 56 | 0 | 1.7 | 1.7 | 0.00 | 0.00 | 0.00 | 58 | 1014.3 |
| 20260506032319 | 56 | 315 | 1.7 | 3.5 | 0.00 | 0.00 | 0.00 | 57 | 1014.3 |
| 20260506030817 | 56 | 315 | 1.7 | 2.6 | 0.00 | 0.00 | 0.00 | 56 | 1014.1 |
| 20260506025314 | 57 | 0 | 1.7 | 2.6 | 0.00 | 0.00 | 0.00 | 56 | 1014.2 |
| 20260506023812 | 57 | 315 | 0.9 | 4.3 | 0.00 | 0.00 | 0.00 | 57 | 1014.1 |
| 20260506022310 | 57 | 315 | 1.7 | 4.3 | 0.00 | 0.00 | 0.00 | 56 | 1014.3 |
| 20260506020808 | 57 | 0 | 3.5 | 4.3 | 0.00 | 0.00 | 0.00 | 58 | 1014.3 |
| 20260506015306 | 58 | 315 | 0.9 | 4.3 | 0.00 | 0.00 | 0.00 | 57 | 1014.3 |
| 20260506013804 | 58 | 0 | 1.7 | 3.5 | 0.00 | 0.00 | 0.00 | 59 | 1014.4 |
| 20260506012307 | 58 | 315 | 3.5 | 3.5 | 0.00 | 0.00 | 0.00 | 57 | 1014.4 |
| 20260506010759 | 58 | 45 | 0.9 | 2.6 | 0.00 | 0.00 | 0.00 | 56 | 1014.4 |
| 20260506005258 | 59 | 270 | 0.9 | 1.7 | 0.00 | 0.00 | 0.00 | 56 | 1014.2 |
| 20260506003754 | 59 | 180 | 0.0 | 3.5 | 0.00 | 0.00 | 0.00 | 55 | 1014.2 |
| 20260506002253 | 59 | 315 | 1.7 | 6.1 | 0.00 | 0.00 | 0.00 | 53 | 1014.2 |
| 20260506000751 | 59 | 225 | 2.6 | 5.2 | 0.00 | 0.00 | 0.00 | 52 | 1014.3 |
| 20260505235249 | 59 | 293 | 3.5 | 7.8 | 0.00 | 0.00 | 0.00 | 53 | 1014.2 |
| 20260505233747 | 60 | 0 | 4.3 | 5.2 | 0.00 | 0.00 | 0.00 | 54 | 1014.4 |